DLH3WT EDDH-EDDF

Flight info

Callsign DLH3WT
Flight time N/A
Altitude 19000
Route IDEKO7G IDEKO N850 NIE/N0392F210 N850 PIROT/N0381F190 T152 KERAX KERAX5D
Aircraft A321/M-SDE3FGHIRWY/LB1

Departure

Time 2026-04-26 07:13
Airport Hamburg Helmut Schmidt Airport (EDDH)

Arrival

Time N/A
Airport Frankfurt Main Airport (EDDF)
Time Latitude Longitude Altitude Speed Heading
2026-04-26 06:57 53.62928 10.00283 48 ft 0 kts 121°
2026-04-26 07:06 53.62929 10.00282 51 ft 1 kts 121°
2026-04-26 07:06 53.62941 10.00247 47 ft 4 kts 117°
2026-04-26 07:07 53.62952 10.00206 46 ft 4 kts 113°
2026-04-26 07:07 53.62963 10.00164 49 ft 4 kts 118°
2026-04-26 07:07 53.62977 10.00132 49 ft 4 kts 167°
2026-04-26 07:07 53.62994 10.00142 51 ft 4 kts 211°
2026-04-26 07:08 53.63017 10.00165 47 ft 4 kts 212°
2026-04-26 07:08 53.63023 10.00171 51 ft 0 kts 212°
2026-04-26 07:09 53.63019 10.00167 51 ft 4 kts 212°
2026-04-26 07:10 53.62812 9.99970 49 ft 2 kts 210°
2026-04-26 07:11 53.62809 9.99968 47 ft 2 kts 210°
2026-04-26 07:12 53.62775 9.99935 48 ft 7 kts 210°
2026-04-26 07:12 53.62738 9.99874 49 ft 7 kts 274°
2026-04-26 07:12 53.62782 9.99817 48 ft 9 kts 331°
2026-04-26 07:12 53.62793 9.99807 48 ft 0 kts 333°
2026-04-26 07:13 53.62954 9.99668 49 ft 62 kts 333°
2026-04-26 07:13 53.63546 9.99157 51 ft 127 kts 333°
2026-04-26 07:13 53.64503 9.98333 61 ft 177 kts 333°
2026-04-26 07:13 53.65592 9.97406 772 ft 174 kts 334°
2026-04-26 07:14 53.66678 9.96468 1519 ft 180 kts 335°
2026-04-26 07:14 53.67874 9.95438 1747 ft 204 kts 335°
2026-04-26 07:14 53.69168 9.94340 2258 ft 211 kts 335°
2026-04-26 07:14 53.70455 9.93121 2923 ft 214 kts 321°
2026-04-26 07:15 53.71300 9.91057 3673 ft 219 kts 288°
2026-04-26 07:15 53.71330 9.88386 4022 ft 244 kts 256°
2026-04-26 07:15 53.70792 9.85582 4460 ft 261 kts 253°
2026-04-26 07:15 53.70194 9.82665 5193 ft 265 kts 253°
2026-04-26 07:16 53.69780 9.80651 5723 ft 267 kts 253°
2026-04-26 07:16 53.69174 9.77670 6466 ft 270 kts 255°
2026-04-26 07:16 53.68564 9.74651 7160 ft 273 kts 255°
2026-04-26 07:16 53.67955 9.71610 7846 ft 275 kts 256°
2026-04-26 07:17 53.67344 9.68534 8550 ft 277 kts 256°
2026-04-26 07:17 53.66733 9.65436 9247 ft 279 kts 256°
2026-04-26 07:17 53.66047 9.62359 9933 ft 285 kts 247°
2026-04-26 07:17 53.64816 9.59659 10536 ft 298 kts 226°
2026-04-26 07:18 53.63027 9.57782 11104 ft 311 kts 205°
2026-04-26 07:18 53.60840 9.56963 11251 ft 336 kts 189°
2026-04-26 07:18 53.58449 9.56504 11379 ft 355 kts 189°
2026-04-26 07:18 53.55938 9.56036 11507 ft 373 kts 189°
2026-04-26 07:19 53.53299 9.55539 11634 ft 389 kts 189°
2026-04-26 07:19 53.50555 9.55018 11853 ft 402 kts 189°
2026-04-26 07:19 53.47766 9.54486 12289 ft 406 kts 189°
2026-04-26 07:19 53.44940 9.53937 12780 ft 410 kts 189°
2026-04-26 07:20 53.42100 9.53378 13283 ft 413 kts 189°
2026-04-26 07:20 53.39228 9.52815 13793 ft 417 kts 189°
2026-04-26 07:20 53.36333 9.52249 14271 ft 420 kts 189°
2026-04-26 07:20 53.33417 9.51675 14716 ft 423 kts 189°
2026-04-26 07:21 53.30494 9.51098 15173 ft 425 kts 189°
2026-04-26 07:21 53.27547 9.50515 15626 ft 427 kts 189°
2026-04-26 07:21 53.24593 9.49933 16062 ft 430 kts 189°
2026-04-26 07:21 53.21611 9.49351 16504 ft 432 kts 189°
2026-04-26 07:22 53.18653 9.48778 16926 ft 434 kts 189°
2026-04-26 07:22 53.15647 9.48201 17360 ft 437 kts 189°
2026-04-26 07:22 53.12616 9.47616 17796 ft 439 kts 189°
2026-04-26 07:22 53.09529 9.47016 18197 ft 442 kts 189°
2026-04-26 07:23 53.06516 9.46429 18598 ft 444 kts 189°
2026-04-26 07:23 53.03437 9.45826 18964 ft 446 kts 189°
2026-04-26 07:23 53.00312 9.45219 19333 ft 448 kts 189°
2026-04-26 07:23 52.97248 9.44621 19691 ft 450 kts 190°
2026-04-26 07:24 52.94133 9.43978 20083 ft 451 kts 191°
2026-04-26 07:24 52.90969 9.43294 20466 ft 453 kts 191°
2026-04-26 07:24 52.87887 9.42611 20835 ft 455 kts 191°
2026-04-26 07:24 52.84745 9.41917 21196 ft 455 kts 191°
2026-04-26 07:25 52.81601 9.41233 21306 ft 457 kts 191°
2026-04-26 07:25 52.78419 9.40547 21330 ft 467 kts 191°
2026-04-26 07:25 52.75171 9.39851 21325 ft 472 kts 190°
2026-04-26 07:25 52.71905 9.39160 21327 ft 473 kts 190°
2026-04-26 07:26 52.68645 9.38476 21324 ft 473 kts 190°
2026-04-26 07:26 52.65373 9.37795 21326 ft 473 kts 190°
2026-04-26 07:26 52.62103 9.37111 21315 ft 473 kts 190°
2026-04-26 07:26 52.58856 9.36361 21324 ft 471 kts 191°
2026-04-26 07:27 52.55624 9.35527 21323 ft 471 kts 192°
2026-04-26 07:27 52.52389 9.34644 21324 ft 471 kts 192°
2026-04-26 07:27 52.49155 9.33749 21324 ft 471 kts 192°
2026-04-26 07:27 52.45932 9.32867 21322 ft 470 kts 192°
2026-04-26 07:28 52.42698 9.31998 21320 ft 470 kts 192°
2026-04-26 07:28 52.39464 9.31144 21301 ft 470 kts 191°
2026-04-26 07:28 52.36243 9.30305 21311 ft 469 kts 192°
2026-04-26 07:28 52.33017 9.29472 21317 ft 469 kts 192°
2026-04-26 07:29 52.29802 9.28641 21319 ft 468 kts 192°
2026-04-26 07:29 52.26593 9.27811 21316 ft 467 kts 192°
2026-04-26 07:29 52.23376 9.26980 21315 ft 467 kts 191°
2026-04-26 07:29 52.20164 9.26231 21313 ft 468 kts 190°
2026-04-26 07:30 52.16929 9.25598 21308 ft 468 kts 189°
2026-04-26 07:30 52.13694 9.25048 21301 ft 468 kts 188°
2026-04-26 07:30 52.10451 9.24531 21310 ft 467 kts 188°
2026-04-26 07:30 52.07224 9.24013 21315 ft 467 kts 188°
2026-04-26 07:31 52.03974 9.23775 21314 ft 468 kts 180°
2026-04-26 07:31 52.00724 9.23942 21315 ft 468 kts 180°
2026-04-26 07:31 51.97465 9.24101 21318 ft 468 kts 180°
2026-04-26 07:31 51.94208 9.24250 21312 ft 468 kts 180°
2026-04-26 07:32 51.92931 9.24308 21311 ft 468 kts 180°
2026-04-26 07:51 51.90312 9.24406 21233 ft 463 kts 180°
2026-04-26 07:51 51.87085 9.24539 21333 ft 467 kts 180°
2026-04-26 07:52 51.83829 9.24691 21342 ft 468 kts 180°
2026-04-26 07:52 51.80572 9.24856 21352 ft 467 kts 180°
2026-04-26 07:52 51.77332 9.25028 21349 ft 466 kts 180°
2026-04-26 07:52 51.74086 9.25200 21349 ft 466 kts 180°
2026-04-26 07:53 51.70845 9.25367 21349 ft 465 kts 180°
2026-04-26 07:53 51.67618 9.25527 21322 ft 465 kts 180°
2026-04-26 07:53 51.64385 9.25680 21321 ft 464 kts 180°
2026-04-26 07:53 51.61156 9.25831 21322 ft 463 kts 180°
2026-04-26 07:54 51.57937 9.25981 21327 ft 463 kts 180°
2026-04-26 07:54 51.54714 9.26132 21325 ft 463 kts 180°
2026-04-26 07:54 51.51493 9.26283 21322 ft 463 kts 180°
2026-04-26 07:54 51.48283 9.26435 21318 ft 462 kts 180°
2026-04-26 07:55 51.45062 9.26590 21317 ft 462 kts 180°
2026-04-26 07:55 51.41843 9.26742 21314 ft 462 kts 180°
2026-04-26 07:55 51.38638 9.26892 21315 ft 462 kts 180°
2026-04-26 07:55 51.35425 9.27041 21315 ft 461 kts 180°
2026-04-26 07:56 51.32225 9.27193 21320 ft 461 kts 180°
2026-04-26 07:56 51.29015 9.27347 21318 ft 461 kts 180°
2026-04-26 07:56 51.25809 9.27497 21315 ft 460 kts 180°
2026-04-26 07:56 51.22646 9.27639 21313 ft 460 kts 180°
2026-04-26 07:57 51.19442 9.27781 21296 ft 460 kts 180°
2026-04-26 07:57 51.16209 9.27927 21307 ft 459 kts 180°
2026-04-26 07:57 51.13053 9.28072 21315 ft 459 kts 180°
2026-04-26 07:57 51.09826 9.28201 21321 ft 459 kts 180°
2026-04-26 07:58 51.06633 9.28218 21320 ft 458 kts 182°
2026-04-26 07:58 51.03487 9.28143 21323 ft 458 kts 182°
2026-04-26 07:58 51.00270 9.28012 21316 ft 457 kts 183°
2026-04-26 07:58 50.97128 9.27949 21320 ft 458 kts 179°
2026-04-26 07:59 50.93932 9.28582 21309 ft 459 kts 169°
2026-04-26 07:59 50.90912 9.30030 21310 ft 460 kts 159°
2026-04-26 07:59 50.88032 9.32260 21312 ft 461 kts 151°
2026-04-26 07:59 50.85230 9.34698 21314 ft 460 kts 155°
2026-04-26 08:00 50.82215 9.36331 21304 ft 457 kts 170°
2026-04-26 08:00 50.79056 9.36688 21312 ft 454 kts 185°
2026-04-26 08:00 50.75939 9.35918 21311 ft 453 kts 192°
2026-04-26 08:00 50.72843 9.34950 21310 ft 453 kts 193°
2026-04-26 08:01 50.69758 9.33959 21312 ft 454 kts 193°
2026-04-26 08:01 50.66662 9.32955 21306 ft 454 kts 193°
2026-04-26 08:01 50.63566 9.31954 21308 ft 454 kts 193°
2026-04-26 08:01 50.60477 9.30964 21303 ft 454 kts 193°
2026-04-26 08:02 50.57378 9.29985 21295 ft 454 kts 193°
2026-04-26 08:02 50.54288 9.29015 21300 ft 454 kts 193°
2026-04-26 08:02 50.51188 9.28045 21303 ft 454 kts 193°
2026-04-26 08:02 50.48087 9.27079 21290 ft 454 kts 193°
2026-04-26 08:03 50.44991 9.26113 21300 ft 453 kts 193°
2026-04-26 08:03 50.41957 9.24823 21303 ft 452 kts 201°
2026-04-26 08:03 50.39087 9.22824 21294 ft 450 kts 210°
2026-04-26 08:03 50.36420 9.20300 21295 ft 449 kts 213°
2026-04-26 08:04 50.33768 9.17719 21295 ft 449 kts 213°
2026-04-26 08:04 50.31157 9.15037 21287 ft 448 kts 218°
2026-04-26 08:04 50.28841 9.11795 21288 ft 446 kts 228°
2026-04-26 08:04 50.26914 9.08007 21291 ft 444 kts 238°
2026-04-26 08:05 50.25427 9.03803 21295 ft 443 kts 247°
2026-04-26 08:05 50.24332 8.99310 21291 ft 442 kts 251°
2026-04-26 08:05 50.23283 8.94806 21291 ft 442 kts 251°
2026-04-26 08:05 50.22221 8.90285 21074 ft 444 kts 250°
2026-04-26 08:06 50.21171 8.85837 20474 ft 440 kts 251°
2026-04-26 08:06 50.20123 8.81391 19902 ft 436 kts 251°
2026-04-26 08:06 50.19077 8.76964 19398 ft 434 kts 250°
2026-04-26 08:06 50.18035 8.72562 18898 ft 431 kts 250°
2026-04-26 08:07 50.16999 8.68185 18378 ft 428 kts 251°
2026-04-26 08:07 50.15969 8.63836 17818 ft 426 kts 251°
2026-04-26 08:07 50.14940 8.59510 17266 ft 424 kts 251°
2026-04-26 08:07 50.13912 8.55212 16724 ft 421 kts 251°
2026-04-26 08:08 50.12892 8.50957 16192 ft 419 kts 251°
2026-04-26 08:08 50.11872 8.46711 15668 ft 417 kts 251°
2026-04-26 08:08 50.10857 8.42497 15159 ft 414 kts 251°
2026-04-26 08:08 50.09845 8.38312 14654 ft 411 kts 251°
2026-04-26 08:09 50.08839 8.34151 14159 ft 409 kts 251°
2026-04-26 08:09 50.07839 8.30015 13604 ft 406 kts 251°
2026-04-26 08:09 50.06848 8.25929 13053 ft 402 kts 251°
2026-04-26 08:09 50.05860 8.21871 12504 ft 399 kts 251°
2026-04-26 08:10 50.04877 8.17853 11970 ft 395 kts 251°
2026-04-26 08:10 50.03904 8.13887 11450 ft 392 kts 251°
2026-04-26 08:10 50.02938 8.09942 10936 ft 386 kts 251°
2026-04-26 08:10 50.01999 8.06102 10463 ft 371 kts 252°
2026-04-26 08:11 50.01127 8.02552 10259 ft 334 kts 252°
2026-04-26 08:11 50.00335 7.99336 10044 ft 304 kts 252°
2026-04-26 08:11 49.99617 7.96408 9844 ft 289 kts 253°
2026-04-26 08:11 49.98911 7.93505 9627 ft 285 kts 253°
2026-04-26 08:12 49.98213 7.90632 9410 ft 283 kts 252°
2026-04-26 08:12 49.97242 7.87971 9202 ft 287 kts 230°
2026-04-26 08:12 49.95600 7.86199 8978 ft 293 kts 203°
2026-04-26 08:12 49.93595 7.85713 8783 ft 296 kts 175°
2026-04-26 08:13 49.91634 7.86633 8563 ft 295 kts 148°
2026-04-26 08:13 49.90143 7.88765 8363 ft 292 kts 121°
2026-04-26 08:13 49.89424 7.91637 8153 ft 286 kts 94°
2026-04-26 08:13 49.89615 7.94639 7948 ft 278 kts 64°
2026-04-26 08:14 49.90701 7.97062 7736 ft 274 kts 45°
2026-04-26 08:14 49.91765 7.99503 7507 ft 278 kts 69°
2026-04-26 08:14 49.92300 8.02405 7144 ft 281 kts 71°
2026-04-26 08:14 49.92922 8.05282 6761 ft 281 kts 67°
2026-04-26 08:15 49.93620 8.08105 6345 ft 278 kts 66°
2026-04-26 08:15 49.94303 8.10862 5965 ft 267 kts 67°
2026-04-26 08:15 49.94945 8.13491 5575 ft 254 kts 67°
2026-04-26 08:15 49.95155 8.14355 5448 ft 250 kts 67°